Location: Narrabri
(30.3170°S, 149.7830°E)
Time: 22:32:49
(UTC+11:00)

Vanguard 2 - All Passes

Search period start: 16 January 2018 00:00
Search period end: 26 January 2018 00:00
Orbit: 552 x 2940 km, 32.9° (Epoch: 16 January)

Date Brightness Start Highest point End Pass type
(mag) Time Alt. Az. Time Alt. Az. Time Alt. Az.
16 Jan - 13:21:21 10° N 13:27:03 13° NNE 13:31:58 10° NE daylight
16 Jan - 15:26:57 10° NW 15:38:01 37° NNE 15:45:08 10° E daylight
16 Jan - 17:38:11 10° WNW 17:47:45 78° NNE 17:53:26 10° ESE daylight
16 Jan - 19:50:18 10° W 19:56:42 66° S 20:01:02 10° E daylight
16 Jan - 22:00:37 10° WSW 22:05:06 74° NNW 22:09:04 10° ENE visible
17 Jan - 00:10:32 10° WNW 00:12:59 15° NNW 00:15:39 10° N night (unlit)
17 Jan - 13:36:04 10° N 13:45:31 20° NNE 13:52:47 10° ENE daylight
17 Jan - 15:44:26 10° NW 15:56:18 48° NNE 16:03:34 10° E daylight
17 Jan - 17:56:33 10° WNW 18:05:56 88° SSW 18:11:30 10° ESE daylight
17 Jan - 20:08:43 10° W 20:14:53 68° S 20:19:10 10° E daylight
17 Jan - 22:18:52 10° W 22:23:08 49° NNW 22:26:59 10° NE visible
18 Jan - 13:52:13 10° NNW 14:03:54 28° NNE 14:12:14 10° E daylight
18 Jan - 16:02:17 10° NW 16:14:32 61° NNE 16:21:47 10° E daylight
18 Jan - 18:15:04 10° W 18:24:07 77° S 18:29:34 10° ESE daylight
18 Jan - 20:27:04 10° WSW 20:33:05 76° S 20:37:18 10° E visible
18 Jan - 22:37:15 10° W 22:41:05 31° NNW 22:44:38 10° NE visible
19 Jan - 12:04:31 10° NNE 12:10:41 13° NE 12:16:12 10° ENE daylight
19 Jan - 14:09:03 10° NNW 14:22:14 37° NNE 14:31:06 10° E daylight
19 Jan - 16:20:25 10° WNW 16:32:46 74° NNE 16:39:56 10° ESE daylight
19 Jan - 18:33:38 10° W 18:42:21 72° S 18:47:39 10° E daylight
19 Jan - 20:45:23 10° WSW 20:51:13 87° NNW 20:55:23 10° ENE visible
19 Jan - 22:55:58 10° WNW 22:58:59 19° NNW 23:01:51 10° NNE visible
20 Jan - 12:18:44 10° N 12:29:07 20° NE 12:37:37 10° ENE daylight
20 Jan - 14:26:22 10° NW 14:40:32 47° NNE 14:49:37 10° E daylight
20 Jan - 16:38:47 10° WNW 16:50:59 87° NNE 16:58:01 10° ESE daylight
20 Jan - 18:52:10 10° W 19:00:36 71° S 19:05:45 10° E daylight
20 Jan - 21:03:42 10° WSW 21:09:16 64° NNW 21:13:21 10° ENE visible
20 Jan - 23:15:54 10° NW 23:16:50 11° NW 23:17:45 10° NNW visible
21 Jan - 12:34:34 10° NNW 12:47:27 27° NNE 12:57:23 10° E daylight
21 Jan - 14:44:05 10° NW 14:58:48 59° NNE 15:07:55 10° E daylight
21 Jan - 16:57:18 10° W 17:09:14 84° SSW 17:16:06 10° ESE daylight
21 Jan - 19:10:40 10° W 19:18:51 75° S 19:23:53 10° E daylight
21 Jan - 21:22:05 10° W 21:27:14 43° NNW 21:31:08 10° NE visible
22 Jan - 10:49:05 10° NNE 10:53:55 12° NE 10:58:30 10° NE daylight
22 Jan - 12:51:11 10° NNW 13:05:45 36° NNE 13:16:27 10° E daylight
22 Jan - 15:02:05 10° WNW 15:17:04 71° NNE 15:26:07 10° ESE daylight
22 Jan - 17:15:55 10° W 17:27:31 77° S 17:34:11 10° E daylight
22 Jan - 19:29:07 10° WSW 19:37:03 85° S 19:41:58 10° ENE daylight
22 Jan - 21:40:38 10° W 21:45:04 27° NNW 21:48:37 10° NNE visible
23 Jan - 11:02:04 10° N 11:12:15 18° NE 11:21:19 10° ENE daylight
23 Jan - 13:08:19 10° NW 13:24:02 46° NNE 13:35:06 10° E daylight
23 Jan - 15:20:22 10° WNW 15:35:20 82° NNE 15:44:16 10° ESE daylight
23 Jan - 17:34:35 10° W 17:45:49 75° S 17:52:19 10° E daylight
23 Jan - 19:47:31 10° WSW 19:55:11 79° NNW 19:59:59 10° ENE daylight
23 Jan - 21:59:37 10° WNW 22:02:49 17° NW 22:05:34 10° N visible
24 Jan - 11:17:30 10° N 11:30:30 25° NE 11:41:37 10° E daylight
24 Jan - 13:25:50 10° NW 13:42:17 56° NNE 13:53:32 10° E daylight
24 Jan - 15:38:51 10° WNW 15:53:38 89° SSW 16:02:22 10° ESE daylight
24 Jan - 17:53:13 10° W 18:04:08 76° S 18:10:27 10° E daylight
24 Jan - 20:05:56 10° WSW 20:13:12 59° NNW 20:17:52 10° NE daylight
25 Jan - 11:33:49 10° NNW 11:48:42 34° NE 12:01:00 10° E daylight
25 Jan - 13:43:41 10° NW 14:00:35 67° NNE 14:11:49 10° ESE daylight
25 Jan - 15:57:28 10° W 16:11:59 82° S 16:20:29 10° ESE daylight
25 Jan - 18:11:48 10° W 18:22:25 82° S 18:28:34 10° E daylight
25 Jan - 20:24:26 10° W 20:31:05 41° NNW 20:35:33 10° NE visible
